Regional Weather Roundup
Issued by NWS

Home | Current Version | Previous Version | Text Only | Print | Product List | Glossary Off
Versions: 1 2 3 4 5 6 7 8 9 10 11 12 13 14 15 16 17 18 19 20 21 22 23 24 25 26 27 28 29 30 31 32 33 34 35 36 37 38 39 40 41 42 43 44 45 46 47 48 49 50

823
ASUS43 KMPX 241001
RWRMN
WEATHER ROUNDUP FOR MINNESOTA
NATIONAL WEATHER SERVICE TWIN CITIES/CHANHASSEN MN
400 AM CST TUE JAN 24 2017


NOTE: "FAIR" INDICATES FEW OR NO CLOUDS BELOW 12,000 FEET WITH NO
SIGNIFICANT WEATHER AND/OR OBSTRUCTIONS TO VISIBILITY. N/A MEANS
CURRENT SKY AND/OR WEATHER CONDITIONS ARE NOT AVAILABLE.

MNZ060>063-068>070-241100-
   Twin Cities Metro

CITY           SKY/WX    TMP DP  RH WIND       PRES   REMARKS
TWIN CITIES    CLOUDY    32  26  78 N6        29.87F WCI  26
ST PAUL        CLOUDY    32  28  85 N7        29.88F WCI  26
CRYSTAL        CLOUDY    32  25  75 N3        29.86F
BLAINE         CLOUDY    34  30  86 N6        29.87S WCI  29
LAKEVILLE      CLOUDY    30  28  93 CALM      29.86S
EDEN PRAIRIE   CLOUDY    32  26  78 CALM      29.86S
SOUTH ST PAUL  CLOUDY    32  29  88 N5        29.87S WCI  28
LAKE ELMO      CLOUDY    32  32 100 NW3       29.87F
$$
MNZ001>005-007-008-013>017-022>024-027-028-241100-
   Northwest Minnesota

CITY           SKY/WX    TMP DP  RH WIND       PRES   REMARKS
BEMIDJI        CLOUDY    27  23  84 W6        29.84S WCI  21
HALLOCK        CLOUDY    27  25  93 SW9       29.82S WCI  17
ROSEAU         CLOUDY    25  21  86 S9        29.82F WCI  15
WARROAD        CLOUDY    25  21  86 SW9       29.83S WCI  15
THIEF RVR FALL CLOUDY    23  20  88 W10       29.86R WCI  12
CROOKSTON      CLOUDY    25  21  86 W8        29.88R WCI  16
FOSSTON        CLOUDY    27  23  86 W9        29.85R WCI  17
DETROIT LAKES  CLOUDY    30  27  86 CALM      29.86R
MOORHEAD       CLOUDY    30  25  80 W3        29.88R
PARK RAPIDS    CLOUDY    28  21  75 N5        29.83S WCI  23
MAHNOMEN       CLOUDY    28  24  84 W5        29.85R WCI  23
$$
MNZ006-009>011-018-025>026-241100-
   North Central Minnesota

CITY           SKY/WX    TMP DP  RH WIND       PRES   REMARKS
BAUDETTE       CLOUDY    26  21  81 SW10      29.82S WCI  16
FLAG ISLAND    CLOUDY    27  21  80 SW9       29.81S WCI  17
INTL FALLS     CLOUDY    29  23  78 SW6       29.84R WCI  23
WASKISH        CLOUDY    27  25  93 W9        29.84S WCI  17
BIG FORK       CLOUDY    30  25  80 CALM      29.84S
LONGVILLE      CLOUDY    28  25  86 CALM      29.83F
GRAND RAPIDS   CLOUDY    30  26  85 NW6       29.85F WCI  24
CRANE LAKE     CLOUDY    28  27  93 CALM      29.86S
ORR            CLOUDY    28  25  86 CALM      29.81F
COOK           CLOUDY    28  28 100 CALM      29.84S
WALKER         CLOUDY    27  22  82 NW3       29.84S
$$
MNZ012-019>021-037-241100-
   Northeast Minnesota

CITY           SKY/WX    TMP DP  RH WIND       PRES   REMARKS
DULUTH         CLOUDY    31  27  85 NW8       29.82S WCI  23
ELY            CLOUDY    30  28  93 CALM      29.82S
HIBBING        CLOUDY    30  25  81 W3        29.83S
EVELETH        CLOUDY    32  26  77 W6        29.84S WCI  27
DULUTH HARBOR  CLOUDY    34  30  86 W6        29.87S WCI  29
TWO HARBORS    CLOUDY    36  28  75 CALM      29.82S
SILVER BAY     CLOUDY    34  32  93 CALM      29.81S
GRAND MARAIS     N/A     35  34  96 CALM      29.82S
G MARAIS ARPRT CLOUDY    30  28  93 CALM      29.78S FOG
$$
MNZ029>031-032-039>041-046>048-054>057-064-241100-
   West Central Minnesota

CITY           SKY/WX    TMP DP  RH WIND       PRES   REMARKS
FERGUS FALLS   CLOUDY    30  27  86 CALM      29.90R
WHEATON        CLOUDY    30  28  93 CALM      29.88F
MORRIS         CLOUDY    30  28  93 CALM      29.86S
ALEXANDRIA     CLOUDY    30  24  78 CALM      29.85S
ELBOW LAKE     CLOUDY    30  29  98 CALM      29.86S FOG
WADENA         CLOUDY    28  25  86 N5        29.84S WCI  23
GLENWOOD       CLOUDY    30  27  86 CALM      29.86F
APPLETON       CLOUDY    32  28  86 E5        29.85F WCI  27
ORTONVILLE     CLOUDY    30  27  86 CALM      29.86S
MADISON        CLOUDY    34  30  86 CALM      29.86S
WILLMAR        CLOUDY    30  28  93 CALM      29.88S
$$
MNZ033>034-036-042>043-049>051-058-059-241100-
   Central Minnesota

CITY           SKY/WX    TMP DP  RH WIND       PRES   REMARKS
ST CLOUD       CLOUDY    31  26  82 NW3       29.86F
SAUK CENTRE    CLOUDY    29  24  81 CALM      29.86F
PAYNESVILLE    CLOUDY    30  29  94 CALM      29.87S
AITKIN         CLOUDY    34  25  69 CALM      29.83F
PINE RIVER     CLOUDY    28  25  86 W3        29.88S
BRAINERD       CLOUDY    30  24  78 N3        29.85S
STAPLES        CLOUDY    28  25  86 N3        29.85S
LONG PRAIRIE   CLOUDY    30  25  80 CALM      29.86S
LITTLE FALLS   CLOUDY    32  27  80 CALM      29.87S
LITCHFIELD     CLOUDY    30  27  86 CALM      29.87R
BUFFALO        CLOUDY    31  26  80 NW3       29.88S
MAPLE LAKE     CLOUDY    32  29  88 N5        29.88S WCI  27
HUTCHINSON     CLOUDY    32  28  87 NE3       29.87S
$$
MNZ037-044-045-052-053-241100-
   East Central Minnesota

CITY           SKY/WX    TMP DP  RH WIND       PRES   REMARKS
PRINCETON      CLOUDY    32  27  80 N5        29.87S WCI  27
MORA           CLOUDY    32  27  80 CALM      29.88S
CAMBRIDGE      CLOUDY    34  25  69 CALM      29.85S
RUSH CITY      CLOUDY    32  28  86 CALM      29.87S
MOOSE LAKE     CLOUDY    32  28  86 CALM      29.84S
HINCKLEY       CLOUDY    32  30  93 NW3       29.86S
CLOQUET        CLOUDY    30  28  93 CALM      29.83F
MCGREGOR       CLOUDY    32  28  86 W3        29.85S
$$
MNZ071>073-080-081-089-090-097-098-241100-
   Southwest Minnesota

CITY           SKY/WX    TMP DP  RH WIND       PRES   REMARKS
MONTEVIDEO     CLOUDY    30  30 100 CALM      29.87F
GRANITE FALLS  CLOUDY    32  30  91 CALM      29.88S
CANBY          CLOUDY    32  30  92 CALM      29.86R
MARSHALL       CLOUDY    31  29  92 E6        29.85R WCI  25
REDWOOD FALLS  CLOUDY    32  26  78 CALM      29.86S
OLIVIA         CLOUDY    32  28  86 N3        29.86S
PIPESTONE      CLOUDY    30  30 100 SE6       29.80R WCI  24
WINDOM         CLOUDY    30  28  93 CALM      29.84R
WORTHINGTON    CLOUDY    31  29  92 E8        29.82  WCI  23
JACKSON        CLOUDY    30  30 100 E5        29.84R WCI  25
TRACY          CLOUDY    32  29  90 CALM      29.84S
SLAYTON        CLOUDY    30  28  94 E5        29.82S WCI  25
$$
MNZ065>067-074>077-082>085-091>093-241100-
   South Central Minnesota

CITY           SKY/WX    TMP DP  RH WIND       PRES   REMARKS
MANKATO        CLOUDY    31  27  85 N3        29.87R
NEW ULM        CLOUDY    30  27  86 CALM      29.86S
ST JAMES       CLOUDY    30  28  93 NE3       29.87S
FAIRMONT       CLOUDY    31  29  92 E5        29.86S WCI  26
GLENCOE        CLOUDY    32  30  93 CALM      29.86S
OWATONNA       CLOUDY    30  27  86 N3        29.86S
WASECA         CLOUDY    32  28  86 CALM      29.87S
ALBERT LEA     CLOUDY    30  28  93 CALM      29.86R
$$
MNZ078>079-086>088-094>096-241100-
   Southeast Minnesota

CITY           SKY/WX    TMP DP  RH WIND       PRES   REMARKS
ROCHESTER      CLOUDY    30  27  88 NW6       29.85S WCI  24
RED WING       CLOUDY    34  27  75 CALM      29.86F
STANTON        CLOUDY    33  29  87 CALM      29.85S
DODGE CENTER   CLOUDY    30  27  86 MISG      29.84F
WINONA         CLOUDY    34  32  93 CALM      29.88S
AUSTIN         CLOUDY    30  27  86 NW5       29.86R WCI  25
PRESTON        CLOUDY    30  26  84 NW6       29.86R WCI  24
$$
ABBREVIATIONS USED IN REMARKS
   TC - TEMPERATURES IN CELSIUS
  WCI - WIND CHILL INDEX
   HX - HEAT INDEX
  VSB - VISIBILITY
$$




USA.gov is the U.S. government's official web portal to all federal, state and local government web resources and services.